When you browse on this site, cookies collect data to enhance your experience and personalize the content and advertising you see.
Visit our Privacy Policy to learn more. By continuing to use the site, you agree to this use of cookies and data.
  • In Hungary
  • List of Countries
  • For 7 days
  • Water Temperature
  • Satellite Maps
  • Weather Map
  • News
  • Weather Widgets
  • user-avatar
    Login

    Hourly Weather Nocera Inferiore

    Today, 26 June, Wednesday

    Time Temperature Precipitation Wind Pressure Humidity
    00:00 +27°C° 0 mm 3 mps 761 mmHg 51%
    01:00 +27°C° 0 mm 3 mps 760 mmHg 52%
    02:00 +27°C° 0 mm 3 mps 760 mmHg 53%
    03:00 +27°C° 0 mm 3 mps 760 mmHg 53%
    04:00 +26°C° 0 mm 3 mps 760 mmHg 53%
    05:00 +27°C° 0 mm 2 mps 760 mmHg 52%
    06:00 +28°C° 0 mm 2 mps 760 mmHg 51%
    07:00 +29°C° 0 mm 2 mps 760 mmHg 49%
    08:00 +31°C° 0 mm 2 mps 760 mmHg 46%
    09:00 +34°C° 0 mm 2 mps 760 mmHg 43%
    10:00 +36°C° 0 mm 2 mps 760 mmHg 39%
    11:00 +36°C° 0 mm 3 mps 760 mmHg 38%
    12:00 +37°C° 0 mm 3 mps 760 mmHg 37%
    13:00 +38°C° 0 mm 4 mps 760 mmHg 36%
    14:00 +37°C° 0.1 mm 4 mps 760 mmHg 38%
    15:00 +36°C° 0.1 mm 4 mps 760 mmHg 40%
    16:00 +36°C° 0.1 mm 4 mps 759 mmHg 42%
    17:00 +35°C° 0 mm 3 mps 759 mmHg 44%
    18:00 +34°C° 0 mm 3 mps 760 mmHg 47%
    19:00 +32°C° 0 mm 2 mps 760 mmHg 50%
    20:00 +31°C° 0 mm 2 mps 760 mmHg 52%
    21:00 +30°C° 0 mm 2 mps 760 mmHg 54%
    22:00 +29°C° 0 mm 2 mps 760 mmHg 55%
    23:00 +29°C° 0 mm 2 mps 760 mmHg 56%

    Tomorrow, 27 June, Thursday

    Time Temperature Precipitation Wind Pressure Humidity
    00:00 +29°C° 0 mm 2 mps 760 mmHg 56%
    01:00 +28°C° 0 mm 2 mps 760 mmHg 57%
    02:00 +28°C° 0 mm 2 mps 760 mmHg 57%
    03:00 +28°C° 0 mm 2 mps 759 mmHg 58%
    04:00 +28°C° 0 mm 2 mps 759 mmHg 58%
    05:00 +29°C° 0 mm 2 mps 759 mmHg 55%
    06:00 +30°C° 0 mm 2 mps 759 mmHg 52%
    07:00 +30°C° 0 mm 2 mps 759 mmHg 50%
    08:00 +32°C° 0 mm 2 mps 759 mmHg 46%
    09:00 +35°C° 0 mm 2 mps 759 mmHg 42%
    10:00 +36°C° 0 mm 2 mps 759 mmHg 38%
    11:00 +37°C° 0 mm 2 mps 759 mmHg 36%
    12:00 +38°C° 0 mm 3 mps 758 mmHg 33%
    13:00 +40°C° 0 mm 4 mps 758 mmHg 31%
    14:00 +39°C° 0 mm 3 mps 758 mmHg 30%
    15:00 +39°C° 0 mm 3 mps 757 mmHg 30%
    16:00 +38°C° 0 mm 3 mps 757 mmHg 29%
    17:00 +37°C° 0 mm 3 mps 757 mmHg 32%
    18:00 +36°C° 0 mm 3 mps 757 mmHg 35%
    19:00 +35°C° 0 mm 2 mps 757 mmHg 38%
    20:00 +34°C° 0 mm 2 mps 757 mmHg 40%
    21:00 +32°C° 0 mm 2 mps 757 mmHg 42%
    22:00 +31°C° 0 mm 1 mps 757 mmHg 43%
    23:00 +30°C° 0 mm 1 mps 757 mmHg 46%

    Day after tomorrow, 28 June, Friday

    Time Temperature Precipitation Wind Pressure Humidity
    00:00 +29°C° 0 mm 1 mps 756 mmHg 48%
    01:00 +29°C° 0 mm 1 mps 756 mmHg 51%
    02:00 +28°C° 0 mm 1 mps 756 mmHg 51%
    03:00 +28°C° 0 mm 1 mps 756 mmHg 52%
    04:00 +28°C° 0 mm 2 mps 756 mmHg 52%
    05:00 +29°C° 0 mm 1 mps 756 mmHg 48%
    06:00 +30°C° 0 mm 1 mps 756 mmHg 44%
    07:00 +31°C° 0 mm 1 mps 755 mmHg 40%
    08:00 +33°C° 0 mm 1 mps 755 mmHg 37%
    09:00 +34°C° 0 mm 1 mps 755 mmHg 34%
    10:00 +36°C° 0 mm 1 mps 755 mmHg 30%
    11:00 +38°C° 0 mm 2 mps 755 mmHg 31%
    12:00 +38°C° 0 mm 2 mps 755 mmHg 31%
    13:00 +39°C° 0 mm 2 mps 755 mmHg 32%
    14:00 +38°C° 0.1 mm 2 mps 755 mmHg 34%
    15:00 +37°C° 0.1 mm 2 mps 755 mmHg 36%
    16:00 +37°C° 0.1 mm 2 mps 755 mmHg 38%
    17:00 +36°C° 0.3 mm 2 mps 755 mmHg 41%
    18:00 +35°C° 0.3 mm 2 mps 755 mmHg 43%
    19:00 +34°C° 0.3 mm 2 mps 755 mmHg 46%
    20:00 +32°C° 0 mm 2 mps 755 mmHg 44%
    21:00 +32°C° 0 mm 2 mps 756 mmHg 43%
    22:00 +31°C° 0 mm 2 mps 756 mmHg 42%
    23:00 +30°C° 0 mm 2 mps 756 mmHg 42%

    29 June, Saturday

    Time Temperature Precipitation Wind Pressure Humidity
    00:00 +30°C° 0 mm 2 mps 756 mmHg 42%
    01:00 +29°C° 0 mm 3 mps 756 mmHg 41%
    02:00 +29°C° 0 mm 3 mps 756 mmHg 42%
    03:00 +28°C° 0 mm 3 mps 756 mmHg 43%
    04:00 +28°C° 0 mm 3 mps 756 mmHg 44%
    05:00 +28°C° 0 mm 3 mps 756 mmHg 41%
    06:00 +29°C° 0 mm 3 mps 756 mmHg 38%
    07:00 +30°C° 0 mm 3 mps 756 mmHg 35%
    08:00 +31°C° 0 mm 3 mps 756 mmHg 32%
    09:00 +33°C° 0 mm 3 mps 756 mmHg 29%
    10:00 +35°C° 0 mm 3 mps 757 mmHg 26%
    11:00 +35°C° 0 mm 3 mps 756 mmHg 25%
    12:00 +36°C° 0 mm 4 mps 756 mmHg 24%
    13:00 +37°C° 0 mm 4 mps 756 mmHg 23%
    14:00 +36°C° 0 mm 4 mps 756 mmHg 24%
    15:00 +36°C° 0 mm 4 mps 756 mmHg 25%
    16:00 +35°C° 0 mm 4 mps 756 mmHg 25%
    17:00 +34°C° 0 mm 4 mps 756 mmHg 28%
    18:00 +33°C° 0 mm 3 mps 757 mmHg 32%
    19:00 +30°C° 0 mm 3 mps 757 mmHg 35%
    20:00 +29°C° 0 mm 3 mps 757 mmHg 37%
    21:00 +28°C° 0 mm 3 mps 757 mmHg 39%
    22:00 +27°C° 0 mm 3 mps 758 mmHg 41%
    23:00 +26°C° 0 mm 3 mps 758 mmHg 43%

    30 June, Sunday

    Time Temperature Precipitation Wind Pressure Humidity
    00:00 +26°C° 0 mm 3 mps 757 mmHg 44%
    01:00 +25°C° 0 mm 3 mps 757 mmHg 46%
    02:00 +25°C° 0 mm 3 mps 757 mmHg 46%
    03:00 +25°C° 0 mm 3 mps 757 mmHg 47%
    04:00 +25°C° 0 mm 3 mps 757 mmHg 47%
    05:00 +26°C° 0 mm 3 mps 757 mmHg 46%
    06:00 +27°C° 0 mm 3 mps 758 mmHg 45%
    07:00 +28°C° 0 mm 3 mps 758 mmHg 43%
    08:00 +30°C° 0 mm 2 mps 758 mmHg 40%
    09:00 +31°C° 0 mm 2 mps 758 mmHg 36%
    10:00 +33°C° 0 mm 1 mps 759 mmHg 32%
    11:00 +35°C° 0 mm 2 mps 759 mmHg 30%
    12:00 +36°C° 0 mm 2 mps 759 mmHg 29%
    13:00 +37°C° 0 mm 2 mps 759 mmHg 27%
    14:00 +36°C° 0 mm 3 mps 758 mmHg 28%
    15:00 +36°C° 0 mm 3 mps 758 mmHg 30%
    16:00 +36°C° 0 mm 3 mps 758 mmHg 31%
    17:00 +35°C° 0 mm 3 mps 758 mmHg 35%
    18:00 +32°C° 0 mm 2 mps 758 mmHg 38%
    19:00 +31°C° 0 mm 2 mps 758 mmHg 42%
    20:00 +30°C° 0 mm 2 mps 759 mmHg 44%
    21:00 +29°C° 0 mm 2 mps 759 mmHg 46%
    22:00 +29°C° 0 mm 2 mps 759 mmHg 48%
    23:00 +28°C° 0 mm 2 mps 759 mmHg 48%

    1 July, Monday

    Time Temperature Precipitation Wind Pressure Humidity
    00:00 +28°C° 0 mm 2 mps 759 mmHg 48%
    01:00 +27°C° 0 mm 2 mps 759 mmHg 47%
    02:00 +27°C° 0 mm 2 mps 759 mmHg 46%
    03:00 +26°C° 0 mm 2 mps 759 mmHg 45%
    04:00 +26°C° 0 mm 2 mps 759 mmHg 44%
    05:00 +27°C° 0 mm 1 mps 759 mmHg 41%
    06:00 +28°C° 0 mm 1 mps 759 mmHg 38%
    07:00 +29°C° 0 mm 1 mps 759 mmHg 35%
    08:00 +31°C° 0 mm 1 mps 759 mmHg 31%
    09:00 +32°C° 0 mm 1 mps 759 mmHg 28%
    10:00 +34°C° 0 mm 1 mps 759 mmHg 25%
    11:00 +35°C° 0 mm 2 mps 759 mmHg 27%
    12:00 +36°C° 0 mm 2 mps 759 mmHg 29%
    13:00 +36°C° 0 mm 3 mps 759 mmHg 31%
    14:00 +35°C° 0 mm 3 mps 758 mmHg 33%
    15:00 +35°C° 0 mm 3 mps 758 mmHg 35%
    16:00 +35°C° 0 mm 2 mps 758 mmHg 37%
    17:00 +34°C° 0 mm 2 mps 758 mmHg 41%
    18:00 +31°C° 0 mm 2 mps 758 mmHg 45%
    19:00 +30°C° 0 mm 1 mps 757 mmHg 49%
    20:00 +30°C° 0 mm 1 mps 758 mmHg 51%
    21:00 +29°C° 0 mm 1 mps 758 mmHg 52%
    22:00 +26°C° 0 mm 0 mps 758 mmHg 54%
    23:00 +28°C° 0 mm 1 mps 758 mmHg 56%
    Show more